Japanese version Home page |
Updated on July 29, 2002 |
Profile
|
Orbital ElementsEpoch 2000 Sept. 13.0 TT = JDT 2451800.5 T 2000 Sept. 19.2865 TT Nakano q 2.927986 (2000.0) P Q z -0.000195 Peri. 284.8142 -0.0154735 +0.6713076 +/-0.000007 Node 49.8316 +0.6918869 +0.5422128 e 1.000572 Incl. 104.1343 -0.7218401 +0.5053231 From 117 observations 2001 Jan. 22-Oct. 21, mean residual 0".6.
|
Finding Charts
|
Magnitudes Graphm1 = 12.6 + 5 log d + 3.3 log r
|
The orbital elements are calculated by Syuichi Nakano and published at the MPC Ephemerides and Orbital Elements.
|